• In Netherlands
  • List of Countries
  • For 7 days
  • Water Temperature
  • Satellite Maps
  • Weather Map
  • Weather Widgets
  • user-avatar
    Login

    Hourly Weather Baku

    Today, 28 April, Friday

    Time Temperature Precipitation Wind Pressure Humidity
    00:00 +14°C° 0 mm 2 mps 772 mmHg 55%
    01:00 +14°C° 0 mm 2 mps 771 mmHg 58%
    02:00 +14°C° 0 mm 2 mps 771 mmHg 60%
    03:00 +13°C° 0 mm 2 mps 771 mmHg 62%
    04:00 +14°C° 0 mm 2 mps 771 mmHg 62%
    05:00 +13°C° 0 mm 3 mps 770 mmHg 62%
    06:00 +13°C° 0 mm 3 mps 770 mmHg 62%
    07:00 +14°C° 0 mm 4 mps 770 mmHg 54%
    08:00 +17°C° 0 mm 4 mps 770 mmHg 47%
    09:00 +17°C° 0 mm 5 mps 770 mmHg 39%
    10:00 +17°C° 0 mm 5 mps 770 mmHg 38%
    11:00 +19°C° 0 mm 5 mps 769 mmHg 37%
    12:00 +19°C° 0 mm 6 mps 769 mmHg 35%
    13:00 +19°C° 0 mm 5 mps 768 mmHg 36%
    14:00 +19°C° 0 mm 5 mps 768 mmHg 36%
    15:00 +19°C° 0 mm 5 mps 767 mmHg 36%
    16:00 +18°C° 0 mm 4 mps 767 mmHg 38%
    17:00 +18°C° 0 mm 4 mps 767 mmHg 39%
    18:00 +17°C° 0 mm 3 mps 766 mmHg 41%
    19:00 +16°C° 0 mm 3 mps 766 mmHg 43%
    20:00 +16°C° 0 mm 2 mps 767 mmHg 45%
    21:00 +15°C° 0 mm 2 mps 767 mmHg 47%
    22:00 +15°C° 0 mm 2 mps 766 mmHg 48%
    23:00 +15°C° 0 mm 2 mps 766 mmHg 48%

    Tomorrow, 29 April, Saturday

    Time Temperature Precipitation Wind Pressure Humidity
    00:00 +14°C° 0 mm 2 mps 766 mmHg 48%
    01:00 +14°C° 0 mm 2 mps 765 mmHg 49%
    02:00 +14°C° 0 mm 2 mps 765 mmHg 50%
    03:00 +14°C° 0 mm 2 mps 764 mmHg 51%
    04:00 +14°C° 0 mm 2 mps 764 mmHg 50%
    05:00 +15°C° 0 mm 2 mps 764 mmHg 49%
    06:00 +16°C° 0 mm 3 mps 764 mmHg 48%
    07:00 +17°C° 0.1 mm 3 mps 764 mmHg 44%
    08:00 +18°C° 0.1 mm 3 mps 764 mmHg 41%
    09:00 +19°C° 0.1 mm 4 mps 764 mmHg 38%
    10:00 +20°C° 0.1 mm 4 mps 764 mmHg 38%
    11:00 +21°C° 0.1 mm 4 mps 764 mmHg 38%
    12:00 +21°C° 0.1 mm 5 mps 764 mmHg 38%
    13:00 +21°C° 0 mm 5 mps 763 mmHg 39%
    14:00 +21°C° 0 mm 5 mps 763 mmHg 40%
    15:00 +21°C° 0 mm 5 mps 763 mmHg 41%
    16:00 +20°C° 0 mm 4 mps 763 mmHg 42%
    17:00 +19°C° 0 mm 4 mps 763 mmHg 44%
    18:00 +19°C° 0 mm 3 mps 762 mmHg 46%
    19:00 +18°C° 0 mm 2 mps 763 mmHg 48%
    20:00 +17°C° 0 mm 2 mps 763 mmHg 50%
    21:00 +17°C° 0 mm 2 mps 763 mmHg 52%
    22:00 +16°C° 0 mm 2 mps 763 mmHg 52%
    23:00 +16°C° 0 mm 1 mps 762 mmHg 53%

    Day after tomorrow, 30 April, Sunday

    Time Temperature Precipitation Wind Pressure Humidity
    00:00 +15°C° 0 mm 1 mps 762 mmHg 53%
    01:00 +15°C° 0 mm 2 mps 762 mmHg 52%
    02:00 +15°C° 0 mm 2 mps 762 mmHg 51%
    03:00 +15°C° 0 mm 2 mps 761 mmHg 50%
    04:00 +16°C° 0 mm 2 mps 761 mmHg 49%
    05:00 +16°C° 0 mm 2 mps 762 mmHg 48%
    06:00 +17°C° 0 mm 2 mps 762 mmHg 47%
    07:00 +18°C° 0 mm 2 mps 762 mmHg 42%
    08:00 +20°C° 0 mm 2 mps 762 mmHg 37%
    09:00 +21°C° 0 mm 2 mps 762 mmHg 33%
    10:00 +23°C° 0 mm 2 mps 762 mmHg 31%
    11:00 +24°C° 0 mm 3 mps 762 mmHg 28%
    12:00 +25°C° 0 mm 3 mps 761 mmHg 26%
    13:00 +25°C° 0 mm 4 mps 761 mmHg 26%
    14:00 +25°C° 0 mm 4 mps 760 mmHg 26%
    15:00 +23°C° 0 mm 5 mps 760 mmHg 26%
    16:00 +22°C° 0 mm 4 mps 760 mmHg 29%
    17:00 +21°C° 0 mm 3 mps 760 mmHg 31%
    18:00 +20°C° 0 mm 2 mps 760 mmHg 33%
    19:00 +19°C° 0 mm 2 mps 760 mmHg 36%
    20:00 +19°C° 0 mm 1 mps 760 mmHg 39%
    21:00 +19°C° 0 mm 1 mps 761 mmHg 42%
    22:00 +18°C° 0 mm 1 mps 761 mmHg 42%
    23:00 +18°C° 0 mm 1 mps 761 mmHg 43%

    1 May, Monday

    Time Temperature Precipitation Wind Pressure Humidity
    00:00 +18°C° 0 mm 1 mps 761 mmHg 44%
    01:00 +18°C° 0 mm 1 mps 760 mmHg 43%
    02:00 +18°C° 0 mm 1 mps 760 mmHg 42%
    03:00 +17°C° 0 mm 2 mps 760 mmHg 41%
    04:00 +17°C° 0 mm 2 mps 760 mmHg 41%
    05:00 +19°C° 0 mm 1 mps 761 mmHg 41%
    06:00 +19°C° 0 mm 1 mps 761 mmHg 41%
    07:00 +20°C° 0 mm 1 mps 761 mmHg 38%
    08:00 +22°C° 0 mm 1 mps 761 mmHg 35%
    09:00 +23°C° 0 mm 1 mps 761 mmHg 32%
    10:00 +24°C° 0 mm 2 mps 761 mmHg 30%
    11:00 +25°C° 0 mm 3 mps 761 mmHg 29%
    12:00 +26°C° 0 mm 3 mps 761 mmHg 27%
    13:00 +26°C° 0 mm 4 mps 761 mmHg 27%
    14:00 +26°C° 0 mm 4 mps 761 mmHg 27%
    15:00 +26°C° 0 mm 5 mps 760 mmHg 27%
    16:00 +25°C° 0 mm 4 mps 760 mmHg 28%
    17:00 +24°C° 0 mm 3 mps 761 mmHg 30%
    18:00 +22°C° 0 mm 3 mps 761 mmHg 32%
    19:00 +21°C° 0 mm 2 mps 761 mmHg 34%
    20:00 +20°C° 0 mm 2 mps 761 mmHg 36%
    21:00 +20°C° 0 mm 1 mps 761 mmHg 39%
    22:00 +19°C° 0 mm 1 mps 761 mmHg 37%
    23:00 +18°C° 0 mm 2 mps 761 mmHg 36%

    2 May, Tuesday

    Time Temperature Precipitation Wind Pressure Humidity
    00:00 +18°C° 0 mm 2 mps 761 mmHg 35%
    01:00 +18°C° 0 mm 2 mps 761 mmHg 36%
    02:00 +17°C° 0 mm 2 mps 761 mmHg 37%
    03:00 +17°C° 0 mm 2 mps 761 mmHg 37%
    04:00 +18°C° 0 mm 2 mps 761 mmHg 38%
    05:00 +18°C° 0 mm 3 mps 761 mmHg 39%
    06:00 +19°C° 0 mm 3 mps 761 mmHg 39%
    07:00 +20°C° 0 mm 3 mps 761 mmHg 37%
    08:00 +21°C° 0 mm 3 mps 761 mmHg 34%
    09:00 +24°C° 0 mm 3 mps 761 mmHg 31%
    10:00 +23°C° 0 mm 4 mps 761 mmHg 30%
    11:00 +25°C° 0 mm 4 mps 760 mmHg 28%
    12:00 +26°C° 0 mm 5 mps 760 mmHg 27%
    13:00 +26°C° 0 mm 5 mps 759 mmHg 27%
    14:00 +26°C° 0 mm 5 mps 759 mmHg 27%
    15:00 +26°C° 0 mm 5 mps 758 mmHg 27%
    16:00 +25°C° 0 mm 4 mps 758 mmHg 29%
    17:00 +24°C° 0 mm 3 mps 758 mmHg 32%
    18:00 +23°C° 0 mm 2 mps 758 mmHg 35%
    19:00 +21°C° 0 mm 2 mps 758 mmHg 36%
    20:00 +21°C° 0 mm 2 mps 758 mmHg 37%
    21:00 +21°C° 0 mm 1 mps 758 mmHg 38%
    22:00 +20°C° 0 mm 2 mps 758 mmHg 39%
    23:00 +19°C° 0 mm 2 mps 757 mmHg 41%

    3 May, Wednesday

    Time Temperature Precipitation Wind Pressure Humidity
    00:00 +19°C° 0 mm 2 mps 757 mmHg 43%
    01:00 +19°C° 0 mm 2 mps 757 mmHg 43%
    02:00 +19°C° 0 mm 2 mps 757 mmHg 44%
    03:00 +19°C° 0 mm 2 mps 756 mmHg 44%
    04:00 +19°C° 0.1 mm 3 mps 756 mmHg 45%
    05:00 +19°C° 0.1 mm 3 mps 756 mmHg 47%
    06:00 +19°C° 0.1 mm 3 mps 757 mmHg 48%
    07:00 +21°C° 0.1 mm 3 mps 757 mmHg 45%
    08:00 +22°C° 0.1 mm 4 mps 757 mmHg 42%
    09:00 +25°C° 0.1 mm 4 mps 757 mmHg 39%
    10:00 +25°C° 0 mm 4 mps 756 mmHg 37%
    11:00 +26°C° 0 mm 5 mps 756 mmHg 35%
    12:00 +27°C° 0 mm 5 mps 756 mmHg 34%
    13:00 +27°C° 0 mm 5 mps 755 mmHg 34%
    14:00 +27°C° 0 mm 5 mps 755 mmHg 35%
    15:00 +26°C° 0 mm 6 mps 755 mmHg 36%
    16:00 +25°C° 0 mm 5 mps 755 mmHg 38%
    17:00 +23°C° 0 mm 4 mps 755 mmHg 41%
    18:00 +22°C° 0 mm 3 mps 755 mmHg 44%
    19:00 +21°C° 0 mm 3 mps 755 mmHg 47%
    20:00 +20°C° 0 mm 3 mps 755 mmHg 50%
    21:00 +19°C° 0 mm 3 mps 756 mmHg 53%
    22:00 +18°C° 0 mm 4 mps 756 mmHg 55%
    23:00 +18°C° 0 mm 4 mps 755 mmHg 57%
    Show more